EHI
9 11 9 6 4 7 12 16 19 17 13 8 4 1 0 0 0 0 0 0 0 0 0 0 0 0 0 0 0 0 0 0 0 0 0 0 0 0 0 0 0 0 0
15 14 11 7 6 9 14 17 18 17 13 9 5 2 1 0 0 0 0 0 0 0 0 0 0 0 0 0 0 0 0 0 0 0 0 0 0 0 0 0 0 0 0
20 17 12 8 8 12 16 18 17 15 13 10 6 3 1 0 0 0 0 0 0 0 0 0 0 0 0 0 0 0 0 0 0 0 0 0 0 0 0 0 0 0 0
18 17 14 12 10 13 18 20 17 14 12 10 6 3 1 0 0 0 0 0 0 0 0 0 0 0 0 0 0 0 0 0 0 0 0 0 0 0 0 0 0 0 0
16 18 19 17 14 15 19 21 18 14 11 9 6 3 1 0 0 0 0 0 0 0 0 0 0 0 0 0 0 0 0 0 0 0 0 0 0 0 0 0 0 0 0
15 18 21 21 17 17 19 21 19 15 12 9 6 2 0 0 0 0 0 0 0 0 0 0 0 0 0 0 0 0 0 0 1 0 0 0 0 0 0 0 0 0 0
14 17 22 22 20 18 18 19 18 16 13 9 6 3 1 0 0 0 0 0 0 0 0 0 0 0 0 0 0 0 0 0 0 0 0 0 0 0 0 0 0 0 0
15 19 23 22 19 18 17 16 16 15 12 8 5 3 2 1 0 0 0 0 0 0 0 0 0 0 0 0 0 0 0 0 0 0 0 0 0 0 0 0 0 0 0
19 21 22 19 15 14 14 13 12 12 9 7 5 4 3 1 0 0 0 0 0 0 0 0 0 0 0 0 0 0 0 0 0 0 0 0 0 0 0 0 0 0 0
22 22 22 19 14 11 10 9 9 8 7 6 5 4 2 1 0 0 0 0 0 0 0 0 0 0 0 0 0 0 0 0 0 0 0 0 0 0 0 0 0 0 0
27 25 23 23 19 12 8 7 7 6 5 5 5 4 2 1 0 0 0 0 0 1 1 0 0 0 0 0 0 0 0 0 0 0 0 0 0 0 0 0 0 0 0
38 31 25 24 22 16 11 9 7 5 5 4 4 3 2 2 1 0 1 1 1 2 1 0 0 0 0 0 0 0 0 0 0 0 0 0 0 0 0 0 0 0 0
47 38 28 24 22 20 17 13 10 8 6 5 4 4 3 3 2 1 2 1 1 1 1 0 0 0 0 0 0 0 0 0 0 0 0 0 0 0 0 0 0 0 0
49 42 32 27 25 25 24 19 15 11 8 7 6 5 4 3 3 3 3 1 1 0 0 0 0 0 0 0 0 0 0 0 0 0 0 0 0 0 0 0 0 0 0
47 42 36 32 29 31 33 29 19 14 12 10 8 5 3 4 6 6 4 2 1 0 0 0 0 0 0 0 0 0 0 0 0 0 0 0 0 0 0 0 0 0 0
43 41 36 32 33 36 38 33 24 18 17 12 9 6 3 4 7 8 6 3 2 1 0 0 0 0 0 0 0 0 0 0 0 0 0 0 0 0 0 0 0 0 0
40 39 34 31 34 37 37 33 26 20 17 13 9 6 3 3 6 8 5 3 2 2 1 0 0 0 0 0 0 0 0 0 0 0 0 0 0 0 0 0 0 0 0
38 37 34 32 33 36 37 33 26 20 17 14 9 5 3 1 3 5 4 3 4 4 2 1 0 0 0 0 0 0 0 0 0 0 0 0 0 0 0 0 0 0 0
36 36 35 34 35 37 37 34 28 22 18 14 8 4 2 1 2 3 4 4 5 6 4 2 1 1 0 0 0 0 0 0 0 0 0 0 0 0 0 0 0 0 0
35 36 36 36 37 37 36 32 27 21 16 12 7 3 2 2 2 3 3 4 6 7 5 3 1 1 0 0 0 0 0 0 0 0 0 0 0 0 0 0 0 0 0
37 36 36 37 37 37 35 29 24 19 14 11 8 5 3 1 1 2 4 5 5 6 5 3 1 0 0 0 0 0 0 0 0 0 0 0 0 0 0 0 1 0 0
39 35 33 34 32 32 32 29 25 22 16 11 10 7 3 1 0 1 3 3 3 3 3 3 2 1 0 0 0 0 0 0 0 0 0 0 0 0 0 0 0 0 0
35 30 27 28 26 25 27 26 24 22 15 9 9 8 4 1 0 1 1 1 1 1 1 2 2 1 0 0 0 0 0 0 0 0 0 0 0 0 0 0 0 0 0
29 25 23 24 22 20 22 21 17 15 10 7 8 9 6 2 0 0 0 0 0 0 0 1 1 0 0 0 0 0 0 0 0 0 0 0 0 0 0 0 0 0 0
25 24 24 25 21 19 18 15 11 10 8 7 9 11 8 4 1 0 0 0 0 0 0 0 0 0 0 0 0 0 0 0 0 0 0 0 0 0 0 0 0 0 0
23 24 26 26 21 19 17 12 8 9 8 8 10 11 10 6 2 0 0 0 0 0 0 0 0 0 0 0 0 0 0 0 0 0 0 0 0 0 0 0 0 0 0
Wind_Speed
14 16 17 15 15 15 15 15 15 15 14 14 14 13 13 13 12 12 12 12 12 13 13 13 13 13 13 13 14 14 14 14 14 14 15 15 14 13 13 13 13 14 15
17 19 18 15 15 15 15 15 15 14 15 14 14 13 13 13 12 12 12 12 12 13 13 13 13 13 14 14 14 14 13 13 14 14 15 14 14 12 11 10 11 13 14
19 19 19 16 15 15 15 15 15 14 14 14 14 13 13 13 12 12 12 12 13 13 13 13 13 14 14 14 13 13 13 13 13 12 11 12 13 12 12 14 15 15 14
19 19 18 18 16 16 15 15 15 14 14 14 13 13 13 12 12 12 12 12 12 13 13 13 13 13 13 13 13 12 12 12 10 9 7 10 12 13 12 13 13 13 14
18 18 19 19 17 16 15 15 14 14 14 14 13 13 12 12 12 12 12 13 12 13 13 13 13 13 13 13 12 12 12 10 6 5 9 10 11 12 12 12 12 13 13
18 18 20 19 17 16 16 15 14 14 14 13 13 13 12 12 12 12 12 12 12 12 12 12 12 12 12 11 11 11 10 8 7 9 8 9 11 11 11 11 12 12 12
18 18 20 19 17 16 16 15 14 14 14 13 13 12 12 12 12 12 12 12 12 12 12 11 11 11 10 10 11 10 8 3 4 8 8 9 11 11 11 11 11 11 11
17 18 19 18 17 16 15 15 14 14 13 13 13 12 12 12 12 12 12 12 12 11 11 10 10 9 9 9 9 9 6 4 7 8 8 10 11 10 11 11 10 10 11
16 16 17 17 16 16 15 14 14 13 13 12 12 12 12 12 12 12 12 11 11 11 10 9 9 9 8 9 9 8 5 2 4 6 8 9 10 9 10 10 10 10 10
14 15 15 15 15 15 14 14 13 13 13 12 12 12 12 12 11 11 11 11 10 10 9 9 8 8 8 9 9 8 6 5 6 7 6 10 10 9 9 9 9 9 9
14 13 14 15 14 13 13 14 14 13 12 12 11 12 11 9 10 9 11 11 10 9 9 8 8 7 8 9 8 7 6 3 6 5 7 12 9 8 8 8 8 8 8
16 14 13 14 14 13 10 11 10 10 10 9 9 10 7 6 5 7 11 9 9 9 9 7 6 6 6 7 9 8 4 4 5 5 9 10 8 7 8 8 7 7 7
16 15 13 12 12 11 9 9 6 6 7 8 9 8 6 6 5 6 6 7 7 8 6 7 6 3 2 3 2 3 3 3 3 4 9 9 7 7 7 7 7 6 6
15 15 13 13 11 10 8 8 7 6 6 6 8 8 7 4 4 5 3 5 5 3 3 3 2 3 3 3 2 3 3 2 3 3 8 8 6 6 6 6 6 6 6
15 15 13 13 12 10 8 7 7 6 7 7 6 7 6 5 5 5 3 3 4 4 4 3 2 3 3 3 2 3 2 3 3 3 6 8 5 5 5 6 5 6 6
16 15 14 14 13 11 9 7 6 6 5 6 6 7 7 5 5 5 5 4 3 3 2 2 4 3 2 2 2 3 2 3 3 2 4 7 7 5 5 5 5 6 6
15 15 15 14 13 12 10 9 7 6 7 6 6 7 7 6 5 5 5 5 4 3 4 2 3 3 3 3 3 3 2 1 3 2 3 3 6 8 6 5 5 6 7
14 15 14 13 13 12 10 8 6 6 7 6 6 6 7 6 6 5 4 4 4 4 3 3 3 3 2 2 2 1 2 2 2 3 3 3 2 4 8 6 5 5 6
14 14 14 13 13 12 11 8 7 6 6 6 5 5 6 6 6 5 4 4 5 4 3 3 3 3 3 2 3 2 2 2 2 2 2 3 3 2 3 7 6 4 5
14 14 13 13 12 12 10 7 6 6 6 6 5 5 7 6 6 5 5 5 6 4 4 3 3 2 2 2 2 2 2 2 2 2 2 3 3 3 2 3 5 6 5
14 14 14 14 13 11 9 9 8 7 6 6 6 7 7 6 7 6 5 6 5 5 4 5 4 5 3 2 3 3 3 3 2 2 1 2 3 2 2 2 2 1 4
14 15 15 14 14 13 10 8 7 7 6 6 6 7 7 7 7 7 6 5 5 4 5 5 4 3 3 3 3 3 4 4 4 2 2 3 2 2 3 3 2 2 1
15 15 13 14 14 13 12 8 7 6 5 6 7 7 7 7 7 6 6 6 5 6 5 5 5 5 4 4 3 3 2 2 3 3 2 2 2 2 2 3 4 3 2
14 14 13 13 13 13 12 11 11 10 9 8 7 7 7 8 8 7 7 6 6 5 5 6 5 4 4 4 4 2 2 3 2 3 4 4 3 2 2 2 3 4 3
13 13 13 13 12 13 12 12 12 10 8 7 8 8 7 7 7 8 7 6 6 5 5 4 4 4 4 4 4 4 3 2 4 3 2 3 4 4 3 3 2 2 2
13 12 13 13 13 13 13 13 13 12 11 10 10 9 8 7 7 8 8 7 6 5 5 5 5 5 4 3 3 3 4 4 4 3 3 4 3 3 3 2 2 2 2
Wind_Direction
153 143 143 147 144 140 137 135 133 131 129 126 124 121 118 114 111 108 105 103 102 101 99 101 102 103 104 105 106 107 108 109 110 112 112 110 110 110 115 120 122 108 109
148 142 145 148 145 142 139 135 133 131 129 127 124 122 119 115 111 108 105 103 103 101 100 100 101 102 103 104 107 108 109 111 113 115 117 113 109 110 110 103 91 105 114
146 142 149 148 145 142 139 136 135 133 131 128 125 122 120 116 114 110 106 103 102 101 101 100 101 102 103 105 106 107 109 111 116 127 141 121 111 108 104 101 104 113 113
146 147 151 147 147 143 140 138 136 134 131 129 126 123 120 118 116 112 109 106 103 103 102 101 102 102 104 106 106 106 107 110 122 157 133 111 112 107 108 109 112 114 114
148 149 144 151 149 145 142 139 137 134 132 131 129 126 123 120 117 113 110 108 106 104 103 102 103 103 104 107 108 107 107 114 147 151 100 104 104 108 109 111 112 113 113
152 151 144 154 150 147 145 142 139 136 135 133 131 128 126 121 117 114 111 109 108 106 104 104 105 106 106 108 110 111 114 139 179 103 108 108 107 112 113 114 115 115 113
155 150 147 154 152 150 147 145 142 140 138 136 133 130 127 123 119 115 113 111 109 108 106 106 106 108 109 109 112 114 119 177 113 105 109 101 102 112 114 113 113 116 115
156 152 146 154 154 152 150 148 145 142 140 137 133 130 127 124 119 117 116 114 112 110 108 106 106 106 110 112 112 116 134 213 118 111 107 102 103 113 115 115 116 117 117
157 152 151 157 157 154 152 149 146 144 141 138 135 131 127 125 123 120 118 116 113 110 108 105 104 106 111 117 118 119 125 290 115 109 108 102 111 117 117 118 119 119 120
161 157 158 161 160 160 156 152 149 147 144 141 139 137 132 129 129 128 130 119 117 114 110 106 105 106 112 120 121 125 143 213 120 117 107 107 122 124 122 121 124 124 123
167 163 166 162 164 166 160 153 156 152 148 150 147 145 156 154 142 149 115 122 124 119 113 108 107 114 129 132 126 142 184 167 111 101 94 109 131 132 129 127 127 129 127
172 171 171 165 167 168 161 156 165 163 157 167 150 157 162 134 135 125 118 126 126 125 123 113 118 157 197 146 144 183 175 127 120 118 102 121 134 137 136 136 135 136 134
173 172 172 166 170 169 162 163 167 159 157 164 155 158 151 150 148 142 143 145 146 154 146 139 175 163 125 96 137 151 102 121 114 113 113 131 140 144 143 145 146 146 145
175 173 172 165 169 173 168 164 167 163 163 162 154 171 161 163 156 144 150 144 153 147 137 144 132 112 100 114 118 112 131 131 106 101 117 138 147 152 153 154 155 157 162
177 174 171 170 170 170 168 173 170 165 165 156 160 169 168 165 164 148 145 153 155 144 154 148 140 129 137 138 131 127 128 98 106 122 120 143 159 164 162 160 166 172 174
181 176 171 174 171 171 170 172 167 167 163 162 165 165 178 170 159 160 161 162 153 155 137 150 144 149 159 123 131 125 146 126 121 147 129 146 164 173 175 174 178 185 184
182 175 173 175 174 174 175 175 171 169 170 171 164 167 178 175 163 171 166 170 157 146 141 161 145 155 170 157 138 130 141 133 123 140 143 147 160 172 179 183 188 194 197
182 176 175 177 177 177 177 180 175 175 173 174 169 169 177 176 172 180 175 167 159 166 164 157 176 169 160 166 149 148 137 150 155 169 164 158 161 165 165 173 193 200 204
179 175 174 178 178 178 177 178 179 174 180 176 174 171 173 178 181 190 180 156 173 175 178 186 159 188 172 183 174 167 177 163 164 174 157 159 157 190 168 154 174 192 204
179 175 175 178 181 177 175 175 177 179 183 180 176 175 180 181 185 191 180 170 185 180 181 179 153 178 199 208 211 156 178 159 178 149 188 162 174 188 185 153 171 169 174
178 179 179 181 181 178 174 178 180 181 183 179 177 177 183 187 186 193 185 170 194 183 184 181 183 176 197 198 198 180 170 167 162 168 192 198 172 172 154 162 194 169 164
181 182 181 182 183 183 181 180 179 173 179 177 175 174 184 187 188 190 189 184 188 177 181 184 199 210 182 201 229 201 186 169 180 165 172 186 180 171 168 162 145 173 248
183 184 182 180 182 185 180 174 170 166 176 178 180 179 182 182 187 192 185 191 182 191 180 190 193 210 200 189 232 250 238 189 156 151 169 170 176 179 181 155 157 150 177
184 182 180 179 182 182 180 180 180 184 186 182 178 173 175 183 183 183 185 184 189 191 171 194 191 205 210 198 181 243 320 2 264 169 176 167 166 182 171 183 153 155 163
180 181 180 178 180 181 184 185 187 189 185 171 170 164 176 177 183 184 181 178 184 191 183 194 178 214 207 214 200 192 188 199 252 258 188 173 178 172 174 186 186 170 153
176 177 176 177 180 183 185 188 190 184 178 172 173 170 178 174 180 183 182 179 187 183 178 188 191 195 218 211 234 218 214 219 227 235 225 211 194 166 180 192 210 190 194